Time,TemperatureF,DewpointF,PressureIn,WindDirection,WindDirectionDegrees,WindSpeedMPH,WindSpeedGustMPH,Humidity,HourlyPrecipIn,Conditions,Clouds,dailyrainin,SoftwareType,DateUTC
2013-04-09 00:32:00,53.0,-99.9,-100.00,North,354,14.0,19.0,-999,-99.99,,,-99.99,,2013-04-09 07:32:00,
2013-04-09 00:42:00,53.0,-99.9,-100.00,North,354,14.0,19.0,-999,-99.99,,,-99.99,,2013-04-09 07:42:00,
2013-04-09 01:00:00,52.0,-99.9,-100.00,NNW,343,8.0,12.0,-999,-99.99,,,-99.99,,2013-04-09 08:00:00,
2013-04-09 01:32:00,52.0,-99.9,-100.00,NNW,343,8.0,12.0,-999,-99.99,,,-99.99,,2013-04-09 08:32:00,
2013-04-09 01:42:00,52.0,-99.9,-100.00,NNW,343,8.0,12.0,-999,-99.99,,,-99.99,,2013-04-09 08:42:00,
2013-04-09 01:52:00,52.0,-99.9,-100.00,NNW,343,8.0,12.0,-999,-99.99,,,-99.99,,2013-04-09 08:52:00,
2013-04-09 03:20:00,54.0,-99.9,-100.00,North,10,7.0,14.0,-999,-99.99,,,-99.99,,2013-04-09 10:20:00,
2013-04-09 03:24:00,53.0,-99.9,-100.00,NNW,332,11.0,16.0,-999,-99.99,,,-99.99,,2013-04-09 10:24:00,
2013-04-09 03:33:00,54.0,-99.9,-100.00,North,356,10.0,16.0,-999,-99.99,,,-99.99,,2013-04-09 10:33:00,
2013-04-09 03:43:00,54.0,-99.9,-100.00,North,356,10.0,16.0,-999,-99.99,,,-99.99,,2013-04-09 10:43:00,
2013-04-09 03:54:00,54.0,-99.9,-100.00,North,356,10.0,16.0,-999,-99.99,,,-99.99,,2013-04-09 10:54:00,
2013-04-09 04:03:00,54.0,-99.9,-100.00,North,10,7.0,14.0,-999,-99.99,,,-99.99,,2013-04-09 11:03:00,
2013-04-09 04:12:00,54.0,-99.9,-100.00,North,10,7.0,14.0,-999,-99.99,,,-99.99,,2013-04-09 11:12:00,
2013-04-09 04:33:00,53.0,-99.9,-100.00,NNW,339,13.0,17.0,-999,-99.99,,,-99.99,,2013-04-09 11:33:00,
2013-04-09 04:43:00,53.0,-99.9,-100.00,NNW,339,13.0,17.0,-999,-99.99,,,-99.99,,2013-04-09 11:43:00,
2013-04-09 04:52:00,53.0,-99.9,-100.00,North,354,14.0,18.0,-999,-99.99,,,-99.99,,2013-04-09 11:52:00,
2013-04-09 05:02:00,53.0,-99.9,-100.00,North,354,14.0,18.0,-999,-99.99,,,-99.99,,2013-04-09 12:02:00,
2013-04-09 05:12:00,53.0,-99.9,-100.00,North,354,14.0,18.0,-999,-99.99,,,-99.99,,2013-04-09 12:12:00,
2013-04-09 05:22:00,52.0,-99.9,-100.00,NNW,345,10.0,14.0,-999,-99.99,,,-99.99,,2013-04-09 12:22:00,
2013-04-09 05:33:00,52.0,-99.9,-100.00,NNW,340,10.0,14.0,-999,-99.99,,,-99.99,,2013-04-09 12:33:00,
2013-04-09 05:43:00,52.0,-99.9,-100.00,NNW,340,10.0,14.0,-999,-99.99,,,-99.99,,2013-04-09 12:43:00,
2013-04-09 05:53:00,52.0,-99.9,-100.00,NNW,340,10.0,14.0,-999,-99.99,,,-99.99,,2013-04-09 12:53:00,
2013-04-09 08:35:00,54.0,-99.9,-100.00,North,0,7.0,12.0,-999,-99.99,,,-99.99,,2013-04-09 15:35:00,
2013-04-09 08:44:00,54.0,-99.9,-100.00,North,0,7.0,12.0,-999,-99.99,,,-99.99,,2013-04-09 15:44:00,
2013-04-09 08:54:00,54.0,-99.9,-100.00,North,0,7.0,12.0,-999,-99.99,,,-99.99,,2013-04-09 15:54:00,
2013-04-09 09:05:00,56.0,-99.9,-100.00,North,4,13.0,17.0,-999,-99.99,,,-99.99,,2013-04-09 16:05:00,
2013-04-09 09:14:00,56.0,-99.9,-100.00,North,4,13.0,17.0,-999,-99.99,,,-99.99,,2013-04-09 16:14:00,
2013-04-09 09:24:00,58.0,-99.9,-100.00,North,351,16.0,16.0,-999,-99.99,,,-99.99,,2013-04-09 16:24:00,
2013-04-09 09:34:00,58.0,-99.9,-100.00,North,351,16.0,16.0,-999,-99.99,,,-99.99,,2013-04-09 16:34:00,
2013-04-09 09:54:00,60.0,-99.9,-100.00,North,2,14.0,19.0,-999,-99.99,,,-99.99,,2013-04-09 16:54:00,
2013-04-09 10:03:00,62.0,-99.9,-100.00,North,3,10.0,19.0,-999,-99.99,,,-99.99,,2013-04-09 17:03:00,
2013-04-09 10:13:00,62.0,-99.9,-100.00,North,3,10.0,19.0,-999,-99.99,,,-99.99,,2013-04-09 17:13:00,
2013-04-09 10:23:00,62.0,-99.9,-100.00,North,3,10.0,19.0,-999,-99.99,,,-99.99,,2013-04-09 17:23:00,
2013-04-09 13:03:00,69.0,-99.9,-100.00,NNE,23,16.0,16.0,-999,-99.99,,,-99.99,,2013-04-09 20:03:00,
2013-04-09 13:13:00,69.0,-99.9,-100.00,NNE,23,16.0,16.0,-999,-99.99,,,-99.99,,2013-04-09 20:13:00,
2013-04-09 13:23:00,69.0,-99.9,-100.00,North,349,17.0,17.0,-999,-99.99,,,-99.99,,2013-04-09 20:23:00,
2013-04-09 13:35:00,69.0,-99.9,-100.00,North,9,15.0,22.0,-999,-99.99,,,-99.99,,2013-04-09 20:35:00,
2013-04-09 13:44:00,69.0,-99.9,-100.00,North,9,15.0,22.0,-999,-99.99,,,-99.99,,2013-04-09 20:44:00,
2013-04-09 14:03:00,71.0,-99.9,-100.00,North,0,15.0,21.0,-999,-99.99,,,-99.99,,2013-04-09 21:03:00,
2013-04-09 14:10:00,72.0,-99.9,-100.00,NNE,21,21.0,22.0,-999,-99.99,,,-99.99,,2013-04-09 21:10:00,
2013-04-09 14:14:00,71.0,-99.9,-100.00,North,0,15.0,21.0,-999,-99.99,,,-99.99,,2013-04-09 21:14:00,
2013-04-09 14:53:00,72.0,-99.9,-100.00,NNE,21,21.0,22.0,-999,-99.99,,,-99.99,,2013-04-09 21:53:00,
2013-04-09 15:04:00,72.0,-99.9,-100.00,NNE,21,21.0,22.0,-999,-99.99,,,-99.99,,2013-04-09 22:04:00,
2013-04-09 15:34:00,71.0,-99.9,-100.00,NNE,14,8.0,15.0,-999,-99.99,,,-99.99,,2013-04-09 22:34:00,
2013-04-09 15:43:00,71.0,-99.9,-100.00,NNE,14,8.0,15.0,-999,-99.99,,,-99.99,,2013-04-09 22:43:00,
2013-04-09 15:54:00,73.0,-99.9,-100.00,North,3,23.0,23.0,-999,-99.99,,,-99.99,,2013-04-09 22:54:00,
2013-04-09 16:03:00,72.0,-99.9,-100.00,NNW,344,13.0,23.0,-999,-99.99,,,-99.99,,2013-04-09 23:03:00,
2013-04-09 16:13:00,72.0,-99.9,-100.00,NNW,344,13.0,23.0,-999,-99.99,,,-99.99,,2013-04-09 23:13:00,
2013-04-09 16:23:00,72.0,-99.9,-100.00,NNW,344,13.0,23.0,-999,-99.99,,,-99.99,,2013-04-09 23:23:00,
2013-04-09 16:33:00,73.0,-99.9,-100.00,NNE,30,7.0,15.0,-999,-99.99,,,-99.99,,2013-04-09 23:33:00,
2013-04-09 16:43:00,73.0,-99.9,-100.00,NNE,30,7.0,15.0,-999,-99.99,,,-99.99,,2013-04-09 23:43:00,
2013-04-09 16:50:00,72.0,-99.9,-100.00,NW,318,12.0,17.0,-999,-99.99,,,-99.99,,2013-04-09 23:50:00,
2013-04-09 17:23:00,73.0,-99.9,-100.00,NNW,330,15.0,23.0,-999,-99.99,,,-99.99,,2013-04-10 00:23:00,
2013-04-09 17:30:00,73.0,-99.9,-100.00,ESE,105,1.0,15.0,-999,-99.99,,,-99.99,,2013-04-10 00:30:00,
2013-04-09 17:33:00,72.0,-99.9,-100.00,NW,318,12.0,17.0,-999,-99.99,,,-99.99,,2013-04-10 00:33:00,
2013-04-09 17:43:00,72.0,-99.9,-100.00,NW,318,12.0,17.0,-999,-99.99,,,-99.99,,2013-04-10 00:43:00,
2013-04-09 18:02:00,73.0,-99.9,-100.00,ESE,105,1.0,15.0,-999,-99.99,,,-99.99,,2013-04-10 01:02:00,
2013-04-09 18:13:00,73.0,-99.9,-100.00,ESE,105,1.0,15.0,-999,-99.99,,,-99.99,,2013-04-10 01:13:00,
2013-04-09 18:23:00,73.0,-99.9,-100.00,ESE,105,1.0,15.0,-999,-99.99,,,-99.99,,2013-04-10 01:23:00,
2013-04-09 18:40:00,72.0,-99.9,-100.00,North,7,12.0,13.0,-999,-99.99,,,-99.99,,2013-04-10 01:40:00,
2013-04-09 18:53:00,73.0,-99.9,-100.00,NE,36,11.0,14.0,-999,-99.99,,,-99.99,,2013-04-10 01:53:00,
2013-04-09 19:03:00,73.0,-99.9,-100.00,North,4,3.0,11.0,-999,-99.99,,,-99.99,,2013-04-10 02:03:00,
2013-04-09 19:13:00,73.0,-99.9,-100.00,North,4,3.0,11.0,-999,-99.99,,,-99.99,,2013-04-10 02:13:00,
2013-04-09 19:20:00,70.0,-99.9,-100.00,East,94,0.0,11.0,-999,-99.99,,,-99.99,,2013-04-10 02:20:00,
2013-04-09 19:23:00,72.0,-99.9,-100.00,North,7,12.0,13.0,-999,-99.99,,,-99.99,,2013-04-10 02:23:00,
2013-04-09 19:33:00,72.0,-99.9,-100.00,North,7,12.0,13.0,-999,-99.99,,,-99.99,,2013-04-10 02:33:00,
2013-04-09 19:53:00,70.0,-99.9,-100.00,West,276,0.0,10.0,-999,-99.99,,,-99.99,,2013-04-10 02:53:00,
2013-04-09 20:03:00,70.0,-99.9,-100.00,East,94,0.0,11.0,-999,-99.99,,,-99.99,,2013-04-10 03:03:00,
2013-04-09 20:10:00,68.0,-99.9,-100.00,East,96,3.0,4.0,-999,-99.99,,,-99.99,,2013-04-10 03:10:00,
2013-04-09 20:13:00,70.0,-99.9,-100.00,East,94,0.0,11.0,-999,-99.99,,,-99.99,,2013-04-10 03:13:00,
2013-04-09 20:33:00,68.0,-99.9,-100.00,NNE,13,9.0,12.0,-999,-99.99,,,-99.99,,2013-04-10 03:33:00,
2013-04-09 20:43:00,68.0,-99.9,-100.00,NNE,13,9.0,12.0,-999,-99.99,,,-99.99,,2013-04-10 03:43:00,
2013-04-09 20:53:00,68.0,-99.9,-100.00,East,96,3.0,4.0,-999,-99.99,,,-99.99,,2013-04-10 03:53:00,
2013-04-09 21:03:00,68.0,-99.9,-100.00,East,96,3.0,4.0,-999,-99.99,,,-99.99,,2013-04-10 04:03:00,
2013-04-09 21:23:00,65.0,-99.9,-100.00,North,11,7.0,9.0,-999,-99.99,,,-99.99,,2013-04-10 04:23:00,
2013-04-09 21:33:00,65.0,-99.9,-100.00,SSW,192,1.0,8.0,-999,-99.99,,,-99.99,,2013-04-10 04:33:00,
2013-04-09 21:43:00,65.0,-99.9,-100.00,SSW,192,1.0,8.0,-999,-99.99,,,-99.99,,2013-04-10 04:43:00,
2013-04-09 21:53:00,65.0,-99.9,-100.00,SSW,192,1.0,8.0,-999,-99.99,,,-99.99,,2013-04-10 04:53:00,
2013-04-09 22:40:00,60.0,-99.9,-100.00,NNE,14,4.0,5.0,-999,-99.99,,,-99.99,,2013-04-10 05:40:00,
2013-04-09 23:22:00,60.0,-99.9,-100.00,NNE,14,4.0,5.0,-999,-99.99,,,-99.99,,2013-04-10 06:22:00,
2013-04-09 23:32:00,60.0,-99.9,-100.00,NNE,14,4.0,5.0,-999,-99.99,,,-99.99,,2013-04-10 06:32:00,
2013-04-09 23:52:00,61.0,-99.9,-100.00,ENE,60,4.0,7.0,-999,-99.99,,,-99.99,,2013-04-10 06:52:00,